User: anonymous   Login
Location: Caltech
(34.1382°N, 118.1253°W)
Time: 15:04:17
(UTC-07:00)
Language:

Cosmos 2322 - Orbit

View from above orbital plane
View from above orbital plane
View from above satellite
View from above satellite

Ground track
Ground track

The orbit data is extracted from the following two-line orbital elements,

1 23704U 95058A   14298.17586287  .00000137  00000-0  98498-4 0  1266
2 23704 070.9885 268.3728 0007006 117.7869 323.2277 14.13283037979354
Epoch (UTC): 25 October 2014 04:13:14
Eccentricity: 0.0007006
inclination: 70.9885°
perigee height: 843 km
apogee height: 853 km
right ascension of ascending node: 268.3728°
argument of perigee: 117.7869°
revolutions per day: 14.13283037
mean anomaly at epoch: 323.2277°
orbit number at epoch: 97935

The dashed part of the orbit path shows where the satellite is in the earth's shadow,  

DLR